Year,Month,Day,Hour,Minute,Value (Times are PST for temperature in C)
2011,05,26,14,14,12.40
2011,05,26,14,15,12.50
2011,05,26,14,16,12.50
2011,05,26,14,17,12.50
2011,05,26,14,18,12.50
2011,05,26,14,19,12.50
2011,05,26,14,20,12.50
2011,05,26,14,21,12.40
2011,05,26,14,22,12.40
2011,05,26,14,23,12.40
2011,05,26,14,24,12.40
2011,05,26,14,25,12.40
2011,05,26,14,26,12.40
2011,05,26,14,27,12.40
2011,05,26,14,28,12.30
2011,05,26,14,29,12.30
2011,05,26,14,30,12.30
2011,05,26,14,31,12.30
2011,05,26,14,32,12.30
2011,05,26,14,33,12.30
2011,05,26,14,34,12.30
2011,05,26,14,35,12.30
2011,05,26,14,36,12.30
2011,05,26,14,37,12.30
2011,05,26,14,38,12.30
2011,05,26,14,39,12.30
2011,05,26,14,40,12.30
2011,05,26,14,41,12.30
2011,05,26,14,42,12.30
2011,05,26,14,43,12.40
2011,05,26,14,44,12.40
2011,05,26,14,45,12.50
2011,05,26,14,46,12.50
2011,05,26,14,47,12.60
2011,05,26,14,48,12.60
2011,05,26,14,49,12.60
2011,05,26,14,50,12.60
2011,05,26,14,51,12.70
2011,05,26,14,52,12.70
2011,05,26,14,53,12.70
2011,05,26,14,54,12.70
2011,05,26,14,55,12.70
2011,05,26,14,56,12.70
2011,05,26,14,57,12.70
2011,05,26,14,58,12.70
2011,05,26,14,59,12.70
2011,05,26,15,00,12.70
2011,05,26,15,01,12.80
2011,05,26,15,02,12.90
2011,05,26,15,03,13.00
2011,05,26,15,04,13.10
2011,05,26,15,05,13.20
2011,05,26,15,06,13.20
2011,05,26,15,07,13.10
2011,05,26,15,08,13.00
2011,05,26,15,09,12.90
2011,05,26,15,10,12.90
2011,05,26,15,11,12.90
2011,05,26,15,12,13.00
2011,05,26,15,13,13.10
2011,05,26,15,14,13.10
2011,05,26,15,15,13.10
2011,05,26,15,16,13.10
2011,05,26,15,17,13.00
2011,05,26,15,18,13.00
2011,05,26,15,19,13.00
2011,05,26,15,20,12.90
2011,05,26,15,21,12.90
2011,05,26,15,22,12.90
2011,05,26,15,23,12.80
2011,05,26,15,24,12.80
2011,05,26,15,25,12.80
2011,05,26,15,26,12.80
2011,05,26,15,27,12.80
2011,05,26,15,28,12.80
2011,05,26,15,29,12.80
2011,05,26,15,30,12.80
2011,05,26,15,31,12.80
2011,05,26,15,32,12.80
2011,05,26,15,33,12.80
2011,05,26,15,34,12.90
2011,05,26,15,35,12.90
2011,05,26,15,36,12.90
2011,05,26,15,37,13.00
2011,05,26,15,38,13.00
2011,05,26,15,39,13.10
2011,05,26,15,40,13.10
2011,05,26,15,41,13.10
2011,05,26,15,42,13.10
2011,05,26,15,43,13.20
2011,05,26,15,44,13.30
2011,05,26,15,45,13.30
2011,05,26,15,46,13.30
2011,05,26,15,47,13.30
2011,05,26,15,48,13.30
2011,05,26,15,49,13.30
2011,05,26,15,50,13.30
2011,05,26,15,51,13.30
2011,05,26,15,52,13.30
2011,05,26,15,53,13.20
2011,05,26,15,54,13.20
2011,05,26,15,55,13.20
2011,05,26,15,56,13.20
2011,05,26,15,57,13.20
2011,05,26,15,58,13.20
2011,05,26,15,59,13.20
2011,05,26,16,00,13.20
2011,05,26,16,01,13.20
2011,05,26,16,02,13.30
2011,05,26,16,03,13.40
2011,05,26,16,04,13.40
2011,05,26,16,05,13.40
2011,05,26,16,06,13.40
2011,05,26,16,07,13.30
2011,05,26,16,08,13.30
2011,05,26,16,09,13.30
2011,05,26,16,10,13.20
2011,05,26,16,11,13.20
2011,05,26,16,12,13.20
2011,05,26,16,13,13.20
2011,05,26,16,14,13.30
2011,05,26,16,15,13.30
2011,05,26,16,16,13.30
2011,05,26,16,17,13.30
2011,05,26,16,18,13.30
2011,05,26,16,19,13.30
2011,05,26,16,20,13.30
2011,05,26,16,21,13.30
2011,05,26,16,22,13.30
2011,05,26,16,23,13.20
2011,05,26,16,24,13.20
2011,05,26,16,25,13.20
2011,05,26,16,26,13.20
2011,05,26,16,27,13.20
2011,05,26,16,28,13.10
2011,05,26,16,29,13.10
2011,05,26,16,30,13.00
2011,05,26,16,31,13.00
2011,05,26,16,32,13.00
2011,05,26,16,33,13.00
2011,05,26,16,34,13.00
2011,05,26,16,35,12.90
2011,05,26,16,36,12.90
2011,05,26,16,37,12.90
2011,05,26,16,38,13.00
2011,05,26,16,39,13.00
2011,05,26,16,40,13.10
2011,05,26,16,41,13.30
2011,05,26,16,42,13.50
2011,05,26,16,43,13.70
2011,05,26,16,44,13.90
2011,05,26,16,45,13.90
2011,05,26,16,46,14.10
2011,05,26,16,47,14.20
2011,05,26,16,48,14.30
2011,05,26,16,49,14.40
2011,05,26,16,50,14.40
2011,05,26,16,51,14.40
2011,05,26,16,52,14.40
2011,05,26,16,53,14.30
2011,05,26,16,54,14.20
2011,05,26,16,55,14.20
2011,05,26,16,56,14.20
2011,05,26,16,57,14.20
2011,05,26,16,58,14.20
2011,05,26,16,59,14.30
2011,05,26,17,00,14.40
2011,05,26,17,01,14.60
2011,05,26,17,02,14.80
2011,05,26,17,03,14.90
2011,05,26,17,04,15.00
2011,05,26,17,05,15.00
2011,05,26,17,06,15.00
2011,05,26,17,07,15.00
2011,05,26,17,08,15.00
2011,05,26,17,09,14.90
2011,05,26,17,10,14.80
2011,05,26,17,11,14.70
2011,05,26,17,12,14.50
2011,05,26,17,13,14.50
2011,05,26,17,14,14.40
2011,05,26,17,15,14.20
2011,05,26,17,16,14.20
2011,05,26,17,17,14.10
2011,05,26,17,18,14.00
2011,05,26,17,19,14.00
2011,05,26,17,20,13.90
2011,05,26,17,21,13.80
2011,05,26,17,22,13.80
2011,05,26,17,23,13.70
2011,05,26,17,24,13.70
2011,05,26,17,25,13.70
2011,05,26,17,26,13.70
2011,05,26,17,27,13.70
2011,05,26,17,28,13.70
2011,05,26,17,29,13.60
2011,05,26,17,30,13.60
2011,05,26,17,31,13.60
2011,05,26,17,32,13.50
2011,05,26,17,33,13.50
2011,05,26,17,34,13.40
2011,05,26,17,35,13.40
2011,05,26,17,36,13.40
2011,05,26,17,37,13.50
2011,05,26,17,38,13.50
2011,05,26,17,39,13.60
2011,05,26,17,40,13.70
2011,05,26,17,41,13.70
2011,05,26,17,42,13.80
2011,05,26,17,43,13.80
2011,05,26,17,44,13.80
2011,05,26,17,45,13.80
2011,05,26,17,46,13.80
2011,05,26,17,47,13.80
2011,05,26,17,48,13.80
2011,05,26,17,49,13.80
2011,05,26,17,50,13.70
2011,05,26,17,51,13.70
2011,05,26,17,52,13.70
2011,05,26,17,53,13.70
2011,05,26,17,54,13.70
2011,05,26,17,55,13.60
2011,05,26,17,56,13.60
2011,05,26,17,57,13.60
2011,05,26,17,58,13.60
2011,05,26,17,59,13.60
2011,05,26,18,00,13.50
2011,05,26,18,01,13.50
2011,05,26,18,02,13.50
2011,05,26,18,03,13.50
2011,05,26,18,04,13.40
2011,05,26,18,05,13.40
2011,05,26,18,06,13.40
2011,05,26,18,07,13.40
2011,05,26,18,08,13.30
2011,05,26,18,09,13.30
2011,05,26,18,10,13.30
2011,05,26,18,11,13.30
2011,05,26,18,12,13.40
2011,05,26,18,13,13.40
2011,05,26,18,14,13.40
2011,05,26,18,15,13.40
2011,05,26,18,16,13.50
2011,05,26,18,17,13.50
2011,05,26,18,18,13.50
2011,05,26,18,19,13.60
2011,05,26,18,20,13.60
2011,05,26,18,21,13.60
2011,05,26,18,22,13.70
2011,05,26,18,23,13.70
2011,05,26,18,24,13.70
2011,05,26,18,25,13.70
2011,05,26,18,26,13.80
2011,05,26,18,27,13.80
2011,05,26,18,28,13.80
2011,05,26,18,29,13.80
2011,05,26,18,30,13.90
2011,05,26,18,31,13.90
2011,05,26,18,32,14.00
2011,05,26,18,33,14.00
2011,05,26,18,34,14.10
2011,05,26,18,35,14.10
2011,05,26,18,36,14.20
2011,05,26,18,37,14.20
2011,05,26,18,38,14.20
2011,05,26,18,39,14.20
2011,05,26,18,40,14.20
2011,05,26,18,41,14.20
2011,05,26,18,42,14.20
2011,05,26,18,43,14.20
2011,05,26,18,44,14.20
2011,05,26,18,45,14.20
2011,05,26,18,46,14.20
2011,05,26,18,47,14.20
2011,05,26,18,48,14.20
2011,05,26,18,49,14.20
2011,05,26,18,50,14.20
2011,05,26,18,51,14.20
2011,05,26,18,52,14.20
2011,05,26,18,53,14.20
2011,05,26,18,54,14.20
2011,05,26,18,55,14.20
2011,05,26,18,56,14.20
2011,05,26,18,57,14.20
2011,05,26,18,58,14.20
2011,05,26,18,59,14.10
2011,05,26,19,00,14.10
2011,05,26,19,01,14.10
2011,05,26,19,02,14.10
2011,05,26,19,03,14.10
2011,05,26,19,04,14.00
2011,05,26,19,05,14.00
2011,05,26,19,06,14.00
2011,05,26,19,07,14.10
2011,05,26,19,08,14.10
2011,05,26,19,09,14.10
2011,05,26,19,10,14.10
2011,05,26,19,11,14.10
2011,05,26,19,12,14.10
2011,05,26,19,13,14.10
2011,05,26,19,14,14.10
2011,05,26,19,15,14.10
2011,05,26,19,16,14.10
2011,05,26,19,17,14.10
2011,05,26,19,18,14.10
2011,05,26,19,19,14.00
2011,05,26,19,20,14.00
2011,05,26,19,21,14.00
2011,05,26,19,22,14.00
2011,05,26,19,23,14.00
2011,05,26,19,24,14.00
2011,05,26,19,25,14.00
2011,05,26,19,26,14.00
2011,05,26,19,27,14.10
2011,05,26,19,28,14.10
2011,05,26,19,29,14.00
2011,05,26,19,30,14.00
2011,05,26,19,31,14.00
2011,05,26,19,32,13.90
2011,05,26,19,33,13.90
2011,05,26,19,34,13.90
2011,05,26,19,35,13.90
2011,05,26,19,36,13.90
2011,05,26,19,37,13.90
2011,05,26,19,38,13.90
2011,05,26,19,39,13.90
2011,05,26,19,40,13.90
2011,05,26,19,41,13.80
2011,05,26,19,42,13.80
2011,05,26,19,43,13.80
2011,05,26,19,44,13.80
2011,05,26,19,45,13.70
2011,05,26,19,46,13.70
2011,05,26,19,47,13.70
2011,05,26,19,48,13.70
2011,05,26,19,49,13.70
2011,05,26,19,50,13.60
2011,05,26,19,51,13.60
2011,05,26,19,52,13.60
2011,05,26,19,53,13.60
2011,05,26,19,54,13.70
2011,05,26,19,55,13.70
2011,05,26,19,56,13.70
2011,05,26,19,57,13.60
2011,05,26,19,58,13.60
2011,05,26,19,59,13.60
2011,05,26,20,00,13.60
2011,05,26,20,01,13.60
2011,05,26,20,02,13.50
2011,05,26,20,03,13.50
2011,05,26,20,04,13.50
2011,05,26,20,05,13.50
2011,05,26,20,06,13.50
2011,05,26,20,07,13.50
2011,05,26,20,08,13.40
2011,05,26,20,09,13.40
2011,05,26,20,10,13.40
2011,05,26,20,11,13.40
2011,05,26,20,12,13.30
2011,05,26,20,13,13.30
2011,05,26,20,14,13.30
2011,05,26,20,15,13.30
2011,05,26,20,16,13.30
2011,05,26,20,17,13.30
2011,05,26,20,18,13.30
2011,05,26,20,19,13.20
2011,05,26,20,20,13.20
2011,05,26,20,21,13.20
2011,05,26,20,22,13.10
2011,05,26,20,23,13.10
2011,05,26,20,24,13.10
2011,05,26,20,25,13.00
2011,05,26,20,26,13.00
2011,05,26,20,27,13.00
2011,05,26,20,28,12.90
2011,05,26,20,29,12.90
2011,05,26,20,30,12.80
2011,05,26,20,31,12.80
2011,05,26,20,32,12.80
2011,05,26,20,33,12.70
2011,05,26,20,34,12.70
2011,05,26,20,35,12.60
2011,05,26,20,36,12.60
2011,05,26,20,37,12.60
2011,05,26,20,38,12.50
2011,05,26,20,39,12.50
2011,05,26,20,40,12.50
2011,05,26,20,41,12.40
2011,05,26,20,42,12.40
2011,05,26,20,43,12.40
2011,05,26,20,44,12.30
2011,05,26,20,45,12.30
2011,05,26,20,46,12.30
2011,05,26,20,47,12.30
2011,05,26,20,48,12.30
2011,05,26,20,49,12.30
2011,05,26,20,50,12.20
2011,05,26,20,51,12.20
2011,05,26,20,52,12.10
2011,05,26,20,53,12.10
2011,05,26,20,54,12.10
2011,05,26,20,55,12.00
2011,05,26,20,56,12.00
2011,05,26,20,57,11.90
2011,05,26,20,58,11.90
2011,05,26,20,59,11.90
2011,05,26,21,00,11.80
2011,05,26,21,01,11.80
2011,05,26,21,02,11.80
2011,05,26,21,03,11.80
2011,05,26,21,04,11.80
2011,05,26,21,05,11.80
2011,05,26,21,06,11.70
2011,05,26,21,07,11.70
2011,05,26,21,08,11.70
2011,05,26,21,09,11.60
2011,05,26,21,10,11.60
2011,05,26,21,11,11.60
2011,05,26,21,12,11.60
2011,05,26,21,13,11.60
2011,05,26,21,14,11.50
2011,05,26,21,15,11.40
2011,05,26,21,16,11.40
2011,05,26,21,17,11.40
2011,05,26,21,18,11.40
2011,05,26,21,19,11.30
2011,05,26,21,20,11.30
2011,05,26,21,21,11.30
2011,05,26,21,22,11.30
2011,05,26,21,23,11.20
2011,05,26,21,24,11.20
2011,05,26,21,25,11.20
2011,05,26,21,26,11.20
2011,05,26,21,27,11.10
2011,05,26,21,28,11.10
2011,05,26,21,29,11.10
2011,05,26,21,30,11.10
2011,05,26,21,31,11.10
2011,05,26,21,32,11.00
2011,05,26,21,33,10.90
2011,05,26,21,34,10.90
2011,05,26,21,35,10.90
2011,05,26,21,36,10.90
2011,05,26,21,37,10.90
2011,05,26,21,38,10.90
2011,05,26,21,39,10.90
2011,05,26,21,40,10.80
2011,05,26,21,41,10.80
2011,05,26,21,42,10.80
2011,05,26,21,43,10.80
2011,05,26,21,44,10.80
2011,05,26,21,45,10.70
2011,05,26,21,46,10.70
2011,05,26,21,47,10.70
2011,05,26,21,48,10.70
2011,05,26,21,49,10.70
2011,05,26,21,50,10.60
2011,05,26,21,51,10.60
2011,05,26,21,52,10.60
2011,05,26,21,53,10.60
2011,05,26,21,54,10.60
2011,05,26,21,55,10.60
2011,05,26,21,56,10.60
2011,05,26,21,57,10.60
2011,05,26,21,58,10.50
2011,05,26,21,59,10.40
2011,05,26,22,00,10.40
2011,05,26,22,01,10.40
2011,05,26,22,02,10.40
2011,05,26,22,03,10.40
2011,05,26,22,04,10.40
2011,05,26,22,05,10.40
2011,05,26,22,06,10.40
2011,05,26,22,07,10.40
2011,05,26,22,08,10.40
2011,05,26,22,09,10.40
2011,05,26,22,10,10.30
2011,05,26,22,11,10.30
2011,05,26,22,12,10.30
2011,05,26,22,13,10.30
2011,05,26,22,14,10.30
2011,05,26,22,15,10.30
2011,05,26,22,16,10.30
2011,05,26,22,17,10.30
2011,05,26,22,18,10.20
2011,05,26,22,19,10.20
2011,05,26,22,20,10.20
2011,05,26,22,21,10.20
2011,05,26,22,22,10.20
2011,05,26,22,23,10.20
2011,05,26,22,24,10.20
2011,05,26,22,25,10.10
2011,05,26,22,26,10.10
2011,05,26,22,27,10.10
2011,05,26,22,28,10.10
2011,05,26,22,29,10.10
2011,05,26,22,30,10.10
2011,05,26,22,31,10.10
2011,05,26,22,32,10.10
2011,05,26,22,33,10.10
2011,05,26,22,34,10.10
2011,05,26,22,35,10.10
2011,05,26,22,36,10.10
2011,05,26,22,37,10.10
2011,05,26,22,38,10.10
2011,05,26,22,39,10.10
2011,05,26,22,40,10.10
2011,05,26,22,41,10.00
2011,05,26,22,42,9.90
2011,05,26,22,43,9.90
2011,05,26,22,44,9.90
2011,05,26,22,45,9.90
2011,05,26,22,46,9.90
2011,05,26,22,47,9.90
2011,05,26,22,48,9.90
2011,05,26,22,49,9.90
2011,05,26,22,50,9.90
2011,05,26,22,51,9.80
2011,05,26,22,52,9.80
2011,05,26,22,53,9.80
2011,05,26,22,54,9.80
2011,05,26,22,55,9.80
2011,05,26,22,56,9.80
2011,05,26,22,57,9.80
2011,05,26,22,58,9.80
2011,05,26,22,59,9.70
2011,05,26,23,00,9.70
2011,05,26,23,01,9.70
2011,05,26,23,02,9.70
2011,05,26,23,03,9.70
2011,05,26,23,04,9.70
2011,05,26,23,05,9.70
2011,05,26,23,06,9.70
2011,05,26,23,07,9.70
2011,05,26,23,08,9.70
2011,05,26,23,09,9.70
2011,05,26,23,10,9.70
2011,05,26,23,11,9.70
2011,05,26,23,12,9.70
2011,05,26,23,13,9.70
2011,05,26,23,14,9.70
2011,05,26,23,15,9.70
2011,05,26,23,16,9.70
2011,05,26,23,17,9.70
2011,05,26,23,18,9.70
2011,05,26,23,19,9.80
2011,05,26,23,20,9.80
2011,05,26,23,21,9.80
2011,05,26,23,22,9.80
2011,05,26,23,23,9.90
2011,05,26,23,24,9.90
2011,05,26,23,25,9.90
2011,05,26,23,26,9.90
2011,05,26,23,27,9.90
2011,05,26,23,28,9.90
2011,05,26,23,29,9.90
2011,05,26,23,30,9.90
2011,05,26,23,31,10.00
2011,05,26,23,32,10.10
2011,05,26,23,33,10.10
2011,05,26,23,34,10.10
2011,05,26,23,35,10.10
2011,05,26,23,36,10.10
2011,05,26,23,37,10.10
2011,05,26,23,38,10.10
2011,05,26,23,39,10.10
2011,05,26,23,40,10.20
2011,05,26,23,41,10.20
2011,05,26,23,42,10.20
2011,05,26,23,43,10.20
2011,05,26,23,44,10.20
2011,05,26,23,45,10.20
2011,05,26,23,46,10.20
2011,05,26,23,47,10.20
2011,05,26,23,48,10.20
2011,05,26,23,49,10.20
2011,05,26,23,50,10.20
2011,05,26,23,51,10.20
2011,05,26,23,52,10.20
2011,05,26,23,53,10.20
2011,05,26,23,54,10.20
2011,05,26,23,55,10.10
2011,05,26,23,56,10.10
2011,05,26,23,57,10.10
2011,05,26,23,58,10.10
2011,05,26,23,59,10.10
